EHI
0 0 0 0 0 0 0 0 1 8 32 63 82 82 66 44 22 7 1 0 0 0 0 0 0 0 0 0 0 0 0 0 0 0 0 0 0 0 0 0 0 0 0
0 0 0 0 0 0 0 0 0 4 21 47 68 72 61 43 25 11 3 0 0 0 0 0 0 0 0 0 0 0 0 0 0 0 0 0 0 0 0 0 0 0 0
0 0 0 0 0 0 0 0 0 1 7 24 43 51 46 36 28 21 10 3 0 0 0 0 0 0 0 0 0 0 0 0 0 0 0 0 0 0 0 0 0 0 0
0 0 0 0 0 0 0 0 0 0 1 8 20 30 29 26 26 25 16 7 2 0 0 0 0 0 0 0 0 0 0 0 0 0 0 0 0 0 0 0 0 0 0
0 0 0 0 0 0 0 0 0 0 0 2 7 14 15 14 14 15 13 8 4 1 0 0 0 0 0 0 0 0 0 0 0 0 0 0 0 0 0 0 0 0 0
0 0 0 0 0 0 0 0 0 0 0 0 1 3 3 2 1 3 5 5 4 1 0 0 0 0 0 0 0 0 0 0 0 0 0 0 0 0 0 0 0 0 0
0 0 0 0 0 0 0 0 0 0 0 0 0 1 1 0 0 1 1 2 2 0 0 0 0 0 0 0 0 0 0 0 0 0 0 0 0 0 0 0 0 0 0
0 0 0 0 0 0 0 0 0 0 0 0 0 0 0 0 0 0 0 0 0 0 0 0 0 0 0 0 0 0 0 0 0 0 0 0 0 0 0 0 0 0 0
0 0 0 0 0 0 0 0 0 0 0 0 0 0 0 0 0 0 0 0 0 0 0 0 0 0 0 0 0 0 0 0 0 0 0 0 0 0 0 0 0 0 0
0 0 0 0 0 0 0 0 0 0 0 0 0 0 0 0 0 0 0 0 0 0 0 0 0 0 0 0 0 0 0 0 0 0 0 0 0 0 0 0 0 0 0
0 0 0 0 0 0 0 0 0 0 0 0 0 0 0 0 0 0 0 0 0 0 0 0 0 0 0 0 0 0 0 0 0 0 0 0 0 0 0 0 0 0 0
0 0 0 0 0 0 0 0 0 0 0 0 0 0 0 0 0 0 0 0 0 0 0 0 0 0 0 0 0 0 0 0 0 0 0 0 0 0 0 0 0 0 0
0 0 0 0 0 0 0 0 0 0 0 0 0 0 0 0 0 0 0 0 0 0 0 0 0 0 0 0 0 0 0 0 0 0 0 0 0 0 0 0 0 0 0
0 0 0 0 0 0 0 0 0 0 0 0 0 0 0 0 0 0 0 0 0 0 0 0 0 0 0 0 0 0 0 0 0 0 0 0 0 0 0 0 0 0 0
0 0 0 0 0 0 0 0 0 0 0 0 0 0 0 0 0 0 0 0 0 0 0 0 0 0 0 0 0 0 0 0 0 0 0 0 0 0 0 0 0 0 0
0 0 0 0 0 0 0 0 0 0 0 0 0 0 0 0 0 0 0 0 0 0 0 0 0 0 0 0 0 0 0 0 0 0 0 0 0 0 0 0 0 0 0
0 0 0 0 0 0 0 0 0 0 0 0 0 0 0 0 0 0 0 0 0 0 0 0 0 0 0 0 0 0 0 0 0 0 0 0 0 0 0 0 0 0 0
0 0 0 0 0 0 0 0 0 0 0 0 0 0 0 0 0 0 0 0 0 0 0 0 0 0 0 0 0 0 0 0 0 0 0 0 0 0 0 0 0 0 0
0 0 0 0 0 0 0 0 0 0 0 0 0 0 0 0 0 0 0 0 0 0 0 0 0 0 0 0 0 0 0 0 0 0 0 0 0 0 0 0 0 0 0
0 0 0 0 0 0 0 0 0 0 0 0 0 0 0 0 0 0 0 0 0 0 0 0 0 0 0 0 0 0 0 0 0 0 0 0 0 0 0 0 0 0 0
0 0 0 0 0 0 0 0 0 0 0 0 0 0 0 0 0 0 0 0 0 0 0 0 0 0 0 0 0 0 0 0 0 0 0 0 0 0 0 0 0 0 0
0 0 0 0 0 0 0 0 0 0 0 0 0 0 0 0 0 0 0 0 0 0 0 0 0 0 0 0 0 0 0 0 0 0 0 0 0 0 0 0 0 0 0
0 0 0 0 0 0 0 0 0 0 0 0 0 0 0 0 0 0 0 0 0 0 0 0 0 0 0 0 0 0 0 0 0 0 0 0 0 0 0 0 0 0 0
0 0 0 0 0 0 0 0 0 0 0 0 0 0 0 0 0 0 0 0 0 0 0 0 0 0 0 0 0 0 0 0 0 0 0 0 0 0 0 0 0 0 0
0 0 0 0 0 0 0 0 0 0 0 0 0 0 0 0 0 0 0 0 0 0 0 0 0 0 0 0 0 0 0 0 0 0 0 0 0 0 0 0 0 0 0
0 0 0 0 0 0 0 0 0 0 0 0 0 0 0 0 0 0 0 0 0 0 0 0 0 0 0 0 0 0 0 0 0 0 0 0 0 0 0 0 0 0 0
Wind_Speed
9 7 7 7 7 7 8 9 9 10 9 8 10 11 11 11 10 10 11 12 11 12 11 8 9 9 9 9 9 5 4 3 3 4 2 2 1 1 1 2 2 2 2
9 7 7 6 7 8 8 8 10 10 10 9 10 8 9 8 10 8 10 12 12 13 11 12 11 10 8 9 8 6 5 3 3 4 4 1 1 1 0 1 2 2 2
11 10 8 7 7 8 8 8 9 10 10 10 6 3 3 3 5 7 9 11 13 13 13 13 12 12 11 11 11 10 9 6 3 3 5 5 5 2 1 1 1 2 2
7 8 7 7 7 7 6 7 7 8 8 8 8 10 10 10 11 10 10 10 13 14 14 14 14 13 11 12 12 10 6 8 5 3 1 2 4 5 2 1 1 1 3
6 6 6 6 6 6 5 4 5 6 7 7 9 11 12 10 7 7 9 10 10 12 13 14 13 13 11 12 12 11 8 6 7 6 4 3 2 2 4 3 2 1 2
7 7 6 6 6 6 6 5 5 5 5 6 7 10 12 11 8 9 10 9 7 8 11 12 12 12 10 12 12 12 12 7 7 6 5 5 5 4 4 3 3 2 2
7 8 10 10 9 9 7 6 5 6 6 5 7 9 11 11 12 12 12 10 8 9 13 13 12 11 10 10 9 9 10 9 10 7 4 3 3 4 4 4 3 1 1
8 8 8 8 8 9 8 7 6 7 6 6 7 7 8 7 7 10 9 11 11 12 12 13 11 10 10 10 9 7 7 7 8 7 6 5 4 3 3 4 4 2 1
9 9 9 9 9 9 9 8 7 8 7 6 6 7 7 7 8 8 8 7 6 6 8 9 9 9 10 10 10 7 8 8 7 7 7 5 4 3 3 3 3 4 2
10 10 9 9 9 9 9 8 8 8 8 7 6 5 6 7 7 6 7 7 6 7 10 10 10 10 10 10 9 8 9 9 8 7 8 6 4 4 3 2 2 2 3
10 10 10 10 10 10 9 9 8 7 7 6 6 6 5 4 4 5 6 6 7 9 11 11 11 11 11 11 10 10 11 11 10 8 8 6 5 3 2 2 1 1 2
8 9 10 10 10 10 9 8 7 7 6 6 5 5 3 2 3 4 5 7 9 9 11 11 12 11 11 11 12 12 11 11 10 8 7 6 4 3 2 2 2 2 3
9 9 10 10 11 10 9 8 7 7 6 5 4 3 1 2 3 5 6 8 9 10 11 11 12 12 12 12 12 13 12 11 10 8 6 5 4 3 2 2 2 2 3
8 9 10 10 10 9 8 8 8 7 6 5 3 2 1 4 5 7 8 9 10 11 12 12 12 12 13 13 13 13 12 11 9 8 6 4 3 2 3 3 4 4 4
9 10 11 11 10 9 8 8 8 7 6 5 5 4 5 7 8 9 10 11 11 12 13 14 13 13 11 11 13 12 12 10 9 7 5 3 1 2 3 4 4 4 4
9 10 10 10 10 9 8 8 8 8 7 7 8 8 9 10 10 11 12 13 13 13 13 13 13 12 11 18 18 13 10 9 7 6 4 2 1 1 3 6 7 6 5
8 8 8 8 8 8 7 8 8 8 8 9 9 9 11 11 11 12 13 13 13 13 13 12 13 14 16 19 18 16 10 8 6 5 3 2 1 2 2 6 9 9 12
6 6 6 6 6 7 7 7 7 8 8 9 9 10 11 12 11 12 13 12 11 11 11 11 12 12 14 18 17 15 9 7 5 4 3 1 1 3 5 5 5 5 6
4 4 4 5 6 6 6 6 7 8 8 9 9 9 9 11 11 11 11 10 10 10 9 9 10 10 11 14 14 11 6 5 4 2 1 1 3 8 10 5 4 5 6
2 3 4 5 6 6 6 7 7 8 8 8 8 8 9 9 10 10 10 9 9 9 9 9 8 8 7 10 11 10 4 3 2 1 1 3 6 9 10 4 3 5 6
2 3 4 5 5 5 6 7 7 8 7 7 8 9 9 9 9 9 9 9 9 9 9 9 7 6 6 6 7 8 3 2 2 1 1 3 9 10 11 9 3 8 9
3 3 4 5 5 5 6 7 7 6 6 7 8 9 8 8 8 9 8 8 8 8 7 7 6 5 5 6 6 6 4 3 2 1 2 4 10 11 11 8 11 14 10
3 3 4 5 5 5 5 6 5 5 7 8 9 8 9 8 7 7 7 6 6 5 4 4 4 3 3 4 6 6 5 5 1 2 6 8 10 9 7 10 13 9 3
3 3 4 5 5 4 5 5 5 5 7 8 7 7 7 7 7 5 5 5 4 4 4 3 3 2 2 2 1 1 2 4 4 3 4 6 8 7 8 8 6 4 4
4 4 4 5 5 4 5 4 5 6 8 7 6 6 6 5 6 5 4 4 2 3 3 2 2 2 0 2 3 1 1 2 2 1 1 2 3 4 4 4 4 4 4
5 5 5 5 5 5 5 4 4 5 7 6 5 4 4 4 4 4 4 7 6 8 7 4 2 0 1 3 6 7 8 8 9 4 2 3 3 4 5 6 6 6 5
Wind_Direction
263 253 244 244 244 237 226 226 223 221 210 201 203 207 211 209 206 207 202 194 189 184 181 175 170 172 173 172 158 135 128 126 140 112 86 34 34 173 208 202 194 202 184
294 284 264 252 240 236 228 224 224 224 214 208 205 206 206 210 209 204 201 195 189 184 185 178 177 179 171 164 165 148 138 140 168 143 132 149 311 277 217 217 199 191 162
293 297 294 277 263 251 237 227 221 221 219 212 201 186 182 187 195 200 203 197 189 186 188 184 178 179 176 178 178 168 154 152 176 187 153 157 201 210 276 297 186 174 162
302 303 306 301 286 268 257 240 230 225 223 211 200 194 202 210 208 206 206 195 191 189 189 184 182 181 182 182 182 176 164 146 154 167 148 132 145 151 181 268 253 192 179
336 336 330 319 317 314 305 281 259 243 232 216 209 206 213 216 208 200 200 197 194 193 190 186 185 185 186 184 180 175 172 161 157 158 152 133 88 117 145 191 223 239 216
358 1 359 1 355 349 343 330 307 279 259 236 222 216 218 215 203 198 200 198 192 193 193 188 188 187 185 184 183 179 177 170 157 156 154 154 156 172 159 160 180 209 246
355 356 355 352 346 342 337 331 321 300 285 260 238 226 225 220 213 208 207 199 193 196 197 191 190 188 185 179 171 172 175 167 160 158 150 139 137 138 138 133 140 173 296
348 344 337 331 325 320 319 320 314 300 292 273 256 242 231 223 221 216 210 205 204 203 195 192 188 181 172 169 163 161 161 153 148 142 132 124 114 111 121 132 129 130 300
333 329 325 321 315 308 303 301 299 294 290 280 269 258 239 224 222 216 213 209 202 184 175 173 169 164 161 158 156 152 147 138 128 122 115 106 96 88 87 103 126 148 204
324 324 320 315 310 301 295 294 286 280 281 281 269 261 248 234 223 207 205 194 173 156 155 157 155 151 149 148 143 136 131 123 113 111 107 94 90 88 83 93 100 128 169
316 317 318 316 312 308 302 297 296 293 291 289 282 268 254 236 211 202 194 174 157 152 154 152 148 146 144 141 134 129 126 118 110 104 104 98 96 99 100 102 125 157 169
313 318 320 322 322 318 314 311 309 304 296 293 286 272 252 208 181 172 156 149 148 147 145 142 140 138 136 134 131 125 118 115 112 106 105 109 114 121 136 158 190 202 203
331 331 330 330 325 321 320 322 323 317 312 310 305 295 216 157 146 136 131 133 133 133 132 132 132 130 128 124 121 117 112 108 108 110 112 118 125 142 170 197 220 231 232
337 337 337 333 327 325 328 334 336 336 338 342 348 350 118 121 118 116 116 119 122 123 121 119 118 118 117 116 114 111 108 106 104 103 103 112 136 175 206 223 229 234 242
343 345 342 336 336 341 346 351 350 353 2 20 34 44 77 92 100 103 104 106 108 110 111 111 110 110 110 112 112 109 109 109 105 99 98 102 120 226 226 230 229 225 235
342 344 344 344 348 351 354 0 6 10 26 45 51 59 75 83 89 94 98 99 101 104 107 109 110 106 106 113 111 109 105 106 107 107 100 95 88 335 315 297 286 264 251
339 343 344 347 351 357 4 13 19 29 44 53 59 66 77 82 86 92 94 96 98 100 101 103 105 105 111 111 107 105 103 103 104 109 110 103 68 13 303 296 296 294 292
337 342 345 352 360 10 20 29 37 45 56 62 67 73 82 86 88 91 93 95 98 99 101 102 103 104 109 109 107 105 102 105 110 115 122 143 264 285 282 258 260 262 272
338 347 358 7 16 22 26 41 47 51 58 62 67 74 83 88 90 91 94 96 97 96 96 98 100 100 104 108 111 111 110 108 111 123 155 227 264 293 303 294 269 272 273
7 15 18 27 31 28 35 51 52 54 56 60 66 71 79 87 90 91 92 91 93 93 91 86 85 93 101 117 120 121 112 112 119 134 274 302 301 300 307 296 275 281 279
52 47 41 40 37 39 51 59 55 53 55 65 71 73 78 83 87 87 86 89 89 88 85 83 74 71 80 92 105 119 118 131 143 185 252 274 303 309 313 322 310 295 307
79 68 60 51 46 53 67 69 59 56 63 70 74 73 73 77 81 84 82 83 89 89 86 86 77 56 51 66 71 75 78 91 147 246 256 269 303 321 330 330 315 317 331
106 91 84 71 59 59 73 80 69 73 78 76 73 73 72 68 71 80 83 77 77 86 85 86 85 68 46 41 51 45 28 8 2 268 304 319 331 341 338 323 326 338 336
129 120 108 95 79 68 71 77 84 88 88 83 76 73 75 70 62 62 71 82 85 90 92 92 90 73 44 15 356 344 329 322 321 318 334 346 347 344 332 331 331 317 298
139 131 125 116 107 95 84 81 88 97 92 84 79 75 74 78 72 66 73 87 89 124 120 120 124 113 41 300 330 348 284 288 291 15 42 355 341 336 328 319 310 305 309
144 139 132 126 121 112 101 94 98 106 107 98 86 81 81 76 76 77 67 76 87 86 93 110 120 208 315 335 354 349 348 348 347 16 0 335 327 320 317 315 313 308 300